SCP
0 0 1 1 1 1 0 1 1 1 1 2 2 2 1 1 1 1 2 2 2 1 1 1 1 1 2 2 2 2 1 1 1 1 1 1 1 1 1 1 1 1 1
0 0 1 1 1 1 1 1 1 1 1 1 2 2 2 2 1 1 2 2 2 1 1 1 1 1 2 2 2 2 2 2 1 1 1 1 1 1 1 1 1 1 1
0 0 1 1 1 1 1 1 1 1 1 1 1 1 2 2 1 1 2 2 2 1 1 1 1 1 2 2 2 2 2 2 2 1 1 1 1 1 1 1 1 1 1
1 1 1 1 1 1 1 1 1 1 1 1 1 1 1 2 1 1 2 2 2 2 2 1 1 2 2 2 2 2 3 3 2 1 1 1 1 1 1 1 1 1 1
1 1 1 1 1 1 1 1 0 1 1 1 1 1 1 1 1 1 2 2 2 2 2 1 1 2 2 2 2 2 3 3 2 1 1 1 1 1 1 1 1 1 1
1 1 1 1 1 1 1 1 0 1 1 1 1 1 1 1 1 1 2 2 2 2 2 1 1 2 2 2 2 2 3 2 2 1 1 1 1 1 1 1 1 1 1
0 0 1 1 1 1 1 1 1 1 1 1 1 1 1 1 1 1 2 2 3 2 2 1 1 2 2 2 2 2 2 2 1 1 1 1 1 1 1 1 1 1 1
0 0 0 0 1 0 0 1 1 1 2 2 2 2 2 1 1 2 2 2 2 2 1 1 1 1 1 2 2 2 2 2 1 0 1 1 1 1 1 1 1 1 1
0 0 0 0 0 0 1 1 1 1 2 2 2 2 2 2 2 2 2 2 2 1 1 1 1 1 1 1 2 2 2 1 1 1 1 1 1 1 1 1 1 1 1
0 0 0 0 0 1 1 1 1 1 1 1 2 2 2 2 2 2 2 2 2 1 1 1 1 1 1 1 1 1 1 1 1 1 1 1 1 1 1 1 1 1 1
0 0 0 0 1 1 1 1 1 1 1 1 1 2 2 2 1 2 2 2 1 1 1 1 1 1 1 1 1 1 1 1 1 1 1 1 1 1 1 1 1 1 1
0 0 0 1 1 1 1 1 1 1 1 1 1 1 1 1 1 1 1 1 1 1 1 2 2 2 1 1 1 1 1 1 1 1 1 1 1 1 1 1 1 1 1
0 0 0 0 1 1 1 1 1 1 1 1 1 1 1 1 1 1 1 1 1 1 2 2 2 2 1 1 1 1 1 1 1 1 1 1 1 1 1 1 1 1 1
0 0 0 0 0 1 1 1 1 1 1 1 1 1 1 1 1 1 2 2 2 2 2 1 1 1 1 1 1 1 1 1 1 1 1 1 1 1 0 1 1 1 1
0 1 0 0 0 1 1 0 1 1 2 2 1 1 1 1 1 1 2 2 2 1 1 1 1 1 1 0 0 1 1 1 1 1 1 1 1 1 1 1 1 1 1
1 1 1 1 0 0 1 1 1 1 2 1 1 1 1 1 1 1 2 2 1 1 1 1 0 0 0 0 0 1 1 1 1 2 2 1 1 1 1 1 1 1 1
1 1 1 1 0 1 1 1 1 1 1 1 1 1 1 1 1 1 1 1 1 1 0 0 0 0 0 0 0 1 1 1 2 2 2 1 1 1 1 1 1 1 1
1 2 1 1 1 1 1 1 1 1 1 1 1 1 1 1 1 1 1 0 0 0 0 0 0 0 0 0 1 1 1 1 1 1 1 1 0 0 1 1 1 1 1
2 2 1 1 1 1 1 1 1 1 1 1 1 1 1 1 1 1 0 0 0 0 1 1 1 0 0 0 0 1 1 1 1 1 1 1 0 0 1 1 1 1 1
1 1 1 1 1 1 1 1 1 1 1 0 0 1 1 1 1 0 0 0 0 0 1 1 1 1 1 0 0 1 1 1 1 1 1 0 0 0 1 1 1 1 1
1 1 1 1 1 1 1 1 1 1 0 0 0 0 0 0 0 0 0 0 0 0 0 1 1 1 1 0 0 0 1 1 1 0 0 0 0 0 0 1 1 1 1
1 1 1 1 1 1 1 1 1 1 0 0 0 0 0 0 0 1 1 0 0 0 0 0 0 0 0 0 0 1 1 1 1 0 0 1 1 0 0 1 1 1 1
1 1 1 1 1 1 1 1 1 1 0 0 0 0 0 0 0 1 1 1 1 0 0 0 0 0 0 0 1 1 1 1 1 1 1 1 1 1 1 1 1 1 1
1 1 1 1 1 1 1 1 1 1 0 0 0 0 0 1 1 1 1 1 1 1 1 0 0 1 1 1 1 1 1 1 1 1 1 1 1 1 1 1 1 1 1
1 1 1 1 1 1 1 1 1 1 0 0 0 0 1 1 1 1 1 1 1 1 1 1 1 1 1 1 1 1 1 1 1 1 1 1 1 1 1 1 1 1 1
1 1 1 1 1 1 2 1 1 1 0 0 0 1 1 1 1 1 1 1 1 1 1 1 1 1 1 1 1 1 1 1 1 1 1 1 1 1 1 1 1 1 1
Wind_Speed
4 6 9 5 6 6 8 8 8 8 8 8 8 8 9 9 9 9 11 12 12 13 14 15 16 16 16 15 15 15 15 15 15 16 16 16 16 15 14 14 13 12 14
4 7 9 6 6 7 8 8 8 8 8 8 8 9 9 9 9 9 11 12 13 13 15 16 16 16 16 15 15 15 15 15 15 16 16 16 15 14 12 10 8 12 14
5 6 8 8 7 7 8 8 8 8 8 8 8 8 9 10 9 10 12 12 13 15 16 16 16 16 15 15 15 15 14 14 15 14 13 12 13 13 12 12 13 14 14
5 6 8 8 7 7 8 8 8 8 8 8 8 8 9 9 10 12 12 13 13 15 16 15 15 15 15 15 14 14 14 14 14 12 9 10 12 13 12 12 12 13 13
6 6 9 7 7 7 7 8 8 7 8 7 7 8 9 9 10 12 13 13 14 15 15 15 15 15 15 14 14 13 13 13 12 9 9 9 10 13 12 12 12 12 12
6 6 10 7 6 6 7 7 7 7 7 7 7 8 9 9 10 12 13 13 13 14 14 14 14 14 14 13 13 13 13 12 11 8 9 9 10 13 13 12 12 11 11
7 6 9 8 7 6 7 7 7 7 7 9 9 9 9 10 11 12 12 12 12 13 13 13 13 13 12 12 12 12 12 10 6 8 8 8 11 13 12 12 11 11 10
7 7 8 9 7 7 7 7 7 7 8 9 10 10 11 11 11 11 11 11 11 11 12 12 12 12 12 12 12 11 10 8 8 8 8 8 12 11 11 11 11 10 10
6 7 6 6 7 7 7 7 6 7 8 9 9 10 10 11 11 11 11 10 10 11 12 12 12 11 11 11 12 11 10 6 5 6 8 8 12 11 11 11 10 10 9
5 6 5 5 6 6 7 8 7 7 7 8 9 9 10 10 11 10 10 10 10 11 11 12 12 12 11 10 11 11 10 8 5 7 6 9 12 10 10 10 10 10 9
5 4 5 4 5 5 6 8 6 7 6 6 7 8 7 6 7 7 10 11 11 11 11 12 11 11 10 10 10 9 8 4 5 4 6 12 11 10 10 9 9 9 9
5 4 5 4 5 4 5 5 3 3 4 3 3 5 5 5 5 7 10 10 10 11 11 10 9 8 6 6 9 8 3 5 5 5 8 13 10 10 9 9 8 8 8
4 4 5 5 4 4 4 3 2 2 3 3 4 5 6 5 5 5 5 6 7 8 6 8 7 4 4 4 3 3 3 3 3 4 9 12 10 9 9 9 8 8 8
4 4 4 5 4 4 3 3 2 2 2 3 4 5 5 4 4 4 3 4 4 3 4 3 3 5 5 5 4 4 4 2 3 3 8 12 10 9 9 8 8 7 8
4 4 4 4 4 4 3 2 3 3 3 4 4 4 5 4 5 5 3 3 3 3 4 3 4 4 4 4 4 4 3 4 4 4 6 11 9 8 8 7 7 7 7
4 4 5 5 5 4 3 2 2 3 2 3 3 4 4 4 4 4 4 3 3 3 3 3 4 3 3 3 3 4 3 4 4 3 4 8 9 8 7 7 7 7 6
5 4 4 5 5 4 4 3 3 3 3 3 3 4 4 4 5 3 3 3 3 3 4 3 4 3 3 3 4 3 3 3 3 3 3 3 6 9 8 7 7 6 6
5 5 4 4 5 5 4 2 2 2 3 3 3 4 4 4 4 3 3 3 3 3 3 3 3 3 3 2 3 2 2 3 3 3 3 3 3 4 8 8 7 6 6
6 6 5 4 5 5 5 3 3 2 2 2 3 3 4 3 4 3 2 3 3 3 3 3 4 3 3 3 2 2 2 2 2 3 3 4 4 3 4 8 8 6 6
6 6 6 6 5 5 4 3 3 3 2 2 3 3 3 3 4 3 3 4 3 3 3 3 3 3 2 3 2 2 1 1 2 2 3 3 3 4 4 4 6 6 7
7 7 7 6 6 5 3 3 3 3 3 3 3 4 4 3 4 3 2 4 3 3 3 4 3 4 3 2 2 2 2 2 2 2 2 2 3 3 3 3 3 3 5
8 8 8 7 7 6 4 3 2 2 3 3 2 3 3 4 3 4 3 3 3 3 4 4 3 2 2 2 2 2 3 3 3 2 2 3 3 3 3 4 3 3 3
9 9 7 8 7 7 6 4 4 4 3 3 4 3 3 3 3 2 3 2 3 3 3 3 3 3 2 2 2 2 1 1 2 3 2 2 2 2 3 3 4 4 4
9 9 8 8 7 7 6 5 5 4 3 3 3 3 4 3 3 3 3 3 3 3 3 4 4 3 3 3 3 2 2 1 2 2 3 3 3 3 3 3 3 4 4
10 9 9 9 8 8 7 6 5 4 4 3 3 4 3 3 3 4 3 3 3 3 3 3 3 4 4 4 3 3 3 2 4 3 2 3 3 3 3 3 2 2 3
10 9 9 9 9 8 8 7 6 5 4 4 4 4 4 4 4 4 4 4 4 3 4 4 4 5 4 4 4 3 3 3 3 3 3 3 3 2 3 2 3 3 3
Wind_Direction
51 56 74 60 69 82 89 91 97 98 96 96 104 111 109 109 108 112 118 122 126 130 132 130 131 129 130 129 128 126 126 128 128 127 127 126 124 124 124 129 132 117 117
66 74 88 76 76 84 86 88 94 95 93 93 97 109 108 106 105 109 118 120 122 127 130 130 131 131 130 131 130 128 127 130 131 131 132 129 126 125 124 123 111 114 124
80 84 95 85 82 85 90 91 96 95 92 91 92 103 104 102 104 111 116 120 120 124 128 130 131 131 131 130 129 129 128 130 132 137 148 135 128 127 124 119 114 122 124
83 82 82 84 83 86 92 94 96 98 95 94 95 97 99 98 101 114 116 118 120 124 128 129 131 132 132 130 128 129 129 130 137 157 148 129 130 127 128 126 124 126 127
88 86 90 89 88 93 95 95 96 98 97 98 100 98 97 97 101 113 115 116 118 123 128 131 134 133 131 131 130 130 131 135 150 161 125 126 122 128 131 131 130 129 130
100 92 91 91 90 93 99 98 95 92 97 102 103 101 101 100 105 112 113 115 116 119 122 127 130 132 132 132 133 134 137 149 165 130 129 133 124 133 136 135 134 131 131
98 93 94 94 89 91 98 98 92 91 93 100 99 99 102 104 108 111 112 114 117 120 122 128 133 133 134 136 138 139 142 157 141 128 132 125 120 134 138 138 137 135 134
95 92 96 110 99 91 96 101 97 95 94 98 97 96 101 106 110 112 114 115 119 122 123 126 131 132 131 136 139 140 145 163 138 135 130 119 121 136 138 139 138 138 135
88 92 96 108 111 109 101 100 103 98 97 102 100 97 102 107 112 115 118 118 121 121 121 123 124 130 129 133 137 140 144 159 151 132 130 122 131 140 141 140 141 143 144
92 93 96 97 103 109 108 108 98 98 98 103 108 106 110 115 120 121 120 117 118 119 121 121 125 127 127 132 139 143 151 173 143 134 126 123 138 146 147 149 151 154 153
92 92 94 96 100 104 104 105 108 112 109 115 116 119 130 121 116 124 108 112 117 118 115 114 117 124 132 134 135 143 167 157 127 121 116 121 142 151 154 156 156 157 159
117 113 105 103 98 100 97 104 109 111 113 106 103 117 120 109 105 106 111 113 116 116 116 114 119 139 158 137 141 162 153 141 134 133 120 132 148 155 159 160 160 161 165
126 116 114 110 112 103 100 105 97 101 109 109 103 107 109 114 118 114 121 128 126 133 130 130 149 143 128 109 115 126 127 141 135 133 127 143 157 164 166 168 170 172 174
129 121 114 120 116 95 89 106 122 115 109 105 104 109 117 116 118 116 120 117 125 125 121 128 118 119 117 117 119 124 137 149 135 119 129 147 161 168 170 173 176 176 176
136 135 119 122 120 120 118 117 109 101 105 104 100 105 116 124 123 120 113 113 118 120 134 126 112 111 115 123 126 124 127 125 126 132 129 149 162 169 173 172 171 174 176
148 141 133 141 134 134 133 126 116 117 109 106 110 110 117 118 117 123 132 129 125 127 110 115 118 125 131 117 116 113 124 119 118 133 135 148 162 167 172 174 176 176 181
156 149 148 148 139 141 144 149 133 131 126 118 112 118 125 127 122 128 130 139 125 126 128 130 129 134 142 136 128 128 131 132 133 141 152 155 159 165 170 176 182 185 187
156 155 162 155 145 147 146 148 131 113 113 120 123 127 124 122 132 139 141 135 135 146 136 135 146 137 137 135 126 131 132 142 156 160 163 164 168 156 163 173 183 192 196
167 167 168 159 154 157 153 159 145 124 118 128 127 130 127 140 143 151 141 124 154 145 145 157 132 142 141 130 134 141 150 160 167 171 164 170 164 173 168 158 174 190 194
169 171 172 168 165 167 165 165 159 144 148 146 138 133 143 155 156 161 157 150 163 149 144 130 129 142 142 143 150 121 149 165 176 162 173 165 171 183 187 176 176 176 180
171 173 176 175 168 176 176 181 172 162 163 153 153 145 155 162 155 172 161 152 172 156 153 151 150 151 155 155 163 151 153 156 149 164 178 175 172 185 189 188 195 183 172
175 177 178 178 175 183 176 181 172 155 161 149 144 142 158 162 170 170 171 182 166 159 165 161 170 178 176 186 214 202 176 159 171 168 173 186 183 182 191 193 187 190 211
179 181 182 181 179 185 181 180 168 161 176 158 162 160 166 170 174 170 168 192 173 192 171 182 193 200 200 197 235 267 250 163 155 157 177 189 190 195 205 187 193 190 201
182 179 181 181 183 184 186 191 186 184 178 167 175 160 163 170 176 175 180 184 195 198 176 204 197 211 212 208 193 239 286 339 238 169 183 184 193 212 227 224 207 199 201
181 178 177 181 183 185 192 189 198 200 187 172 171 159 177 176 190 194 188 192 198 206 201 221 207 224 219 227 222 203 200 213 241 236 195 187 189 203 213 223 224 218 205
180 180 177 177 182 185 190 193 201 203 198 183 179 177 187 183 188 192 194 200 210 213 205 216 221 220 230 234 245 242 227 224 223 231 227 218 209 195 207 216 222 216 213